Regional Weather Roundup
Issued by NWS

Home | Current Version | Previous Version | Text Only | Print | Product List | Glossary Off
Versions: 1 2 3 4 5 6 7 8 9 10 11 12 13 14 15 16 17 18 19 20 21 22 23 24 25 26 27 28 29 30 31 32 33 34 35 36 37 38 39 40 41 42 43 44 45 46 47 48 49 50

000
ASUS43 KMKX 061200
RWRWI

WISCONSIN REGIONAL WEATHER ROUNDUP
NATIONAL WEATHER SERVICE MILWAUKEE/SULLIVAN WI
700 AM CDT MON JUL 06 2015

NOTE: "FAIR" INDICATES FEW OR NO CLOUDS BELOW 12,000 FEET WITH NO
SIGNIFICANT WEATHER AND/OR OBSTRUCTIONS TO VISIBILITY.

WIZ001-002-006>008-014>016-023>028-061300-
NORTHWEST WISCONSIN

CITY           SKY/WX    TMP DP  RH WIND       PRES   REMARKS
SUPERIOR ARPT  DRIZZLE   66  66  99 N6        29.83S
ASHLAND        CLOUDY    67  67 100 E3        29.85R
6HR MIN TEMP:  65; 6HR MAX TEMP:  68; 6HR PCP:  0.64;

HAYWARD        RAIN      67  65  93 S3        29.84R FOG
6HR MIN TEMP:  66; 6HR MAX TEMP:  70; 6HR PCP:  1.17;

SIREN          RAIN      67  66  96 CALM      29.83R
CUMBERLAND     HVY RAIN  64  64 100 S8        29.85S
RICE LAKE      HVY RAIN  66  65  94 SE10      29.86R
CHETEK         RAIN      67  67  99 SE7G16    29.85S
LADYSMITH      RAIN      67  66  96 CALM      29.87S
EAU CLAIRE     RAIN      68  67  96 NE13      29.82F FOG
6HR MIN TEMP:  68; 6HR MAX TEMP:  73; 6HR PCP:  1.20;

MENOMONIE      RAIN      69  68  99 E7        29.84R
NEW RICHMOND   HVY RAIN  67  66  99 SE5       29.85R
OSCEOLA        RAIN      67  67 100 SE9       29.86R
$$

WIZ003>005-009-010-017-018-061300-
NORTH CENTRAL WISCONSIN

CITY           SKY/WX    TMP DP  RH WIND       PRES   REMARKS
MANITOWISH WTR RAIN      66  66 100 SW5       29.89S
ARBOR VITAE    DRIZZLE   67  65  91 SW5       29.89F
WOODRUFF       DRIZZLE   67  65  91 SW5       29.89F
RHINELANDER    CLOUDY    68  64  87 SW6       29.90F
6HR MIN TEMP:  68; 6HR MAX TEMP:  69;

EAGLE RIVER    CLOUDY    68  63  83 SW5       29.89S HAZE
LAND O LAKES   CLOUDY    69  64  86 SW6       29.90R HAZE
PHILLIPS       CLOUDY    66  66 100 S8        29.89R
TOMAHAWK       CLOUDY    66  63  90 CALM      29.89F FOG
MEDFORD        CLOUDY    66  65  95 E6        29.87F THUNDER FOG
MERRILL        CLOUDY    68  66  92 CALM      29.89F THUNDER FOG
$$

WIZ029-030-035-036-043>047-061300-
CENTRAL WISCONSIN

CITY           SKY/WX    TMP DP  RH WIND       PRES   REMARKS
WAUSAU         CLOUDY    67  64  90 SE7       29.86F FOG
6HR MIN TEMP:  67; 6HR MAX TEMP:  71;

MOSINEE        MOSUNNY   66  64  94 SE3       29.88F FOG
MARSHFIELD     CLOUDY    69  63  81 S13       29.85F HAZE
6HR MIN TEMP:  67; 6HR MAX TEMP:  70;

STEVENS POINT  CLOUDY    66  63  89 S6        29.88F FOG
WAUPACA        CLOUDY    67  66  96 SE6       29.90F FOG
WAUTOMA        NOT AVBL
WISC RAPIDS    CLOUDY    68  63  84 S6        29.87F
6HR MIN TEMP:  67; 6HR MAX TEMP:  70;

CAMP DOUGLAS   NOT AVBL
$$

WIZ011>013-019>022-031-037>040-048>050-061300-
NORTHEAST WISCONSIN

CITY           SKY/WX    TMP DP  RH WIND       PRES   REMARKS
ANTIGO         CLOUDY    64  63  97 S7        29.91F FOG
SHAWANO        CLOUDY    68  64  86 S3        29.91F
OCONTO         CLOUDY    66  66 100 CALM      29.91F
STURGEON BAY   CLOUDY    64  59  82 S9        29.96F
6HR MIN TEMP:  63; 6HR MAX TEMP:  66;

GREEN BAY      CLOUDY    67  64  90 SE7       29.92F FOG
6HR MIN TEMP:  64; 6HR MAX TEMP:  67;

MANITOWOC      NOT AVBL
APPLETON       PTSUNNY   68  63  83 SW8       29.93F
CLINTONVILLE   CLOUDY    64  63  94 SE3       29.90F FOG
OSHKOSH        CLOUDY    68  63  84 S9        29.91F HAZE
6HR MIN TEMP:  65; 6HR MAX TEMP:  68;

$$

WIZ032>034-041-042-053>061-061300-
SOUTHWEST WISCONSIN

CITY           SKY/WX    TMP DP  RH WIND       PRES   REMARKS
LA CROSSE      CLOUDY    74  67  78 S15       29.83S HAZE
6HR MIN TEMP:  74; 6HR MAX TEMP:  75;

SPARTA         CLOUDY    72  64  76 S5        29.85F
VIROQUA        CLOUDY    69  68  94 S9        29.88S
BOSCOBEL       CLOUDY    72  66  81 CALM      29.86F HAZE
6HR MIN TEMP:  71; 6HR MAX TEMP:  73;

PRAIRIE DU CHI CLOUDY    73  66  79 E6        29.84F
PLATTEVILLE    CLOUDY    70  67  92 S9        29.90F
$$

WIZ056-057-062-063-064-067-068-061300-
SOUTH CENTRAL WISCONSIN

CITY           SKY/WX    TMP DP  RH WIND       PRES   REMARKS
REEDSBURG      CLOUDY    69  65  88 S7        29.89S
BARABOO/DELLS  CLOUDY    69  64  81 S9        29.90S HAZE
LONE ROCK      NOT AVBL
MINERAL POINT  CLOUDY    68  66  94 SE9       29.91F FOG
MADISON        CLOUDY    70  64  81 S9        29.92S HAZE
6HR MIN TEMP:  69; 6HR MAX TEMP:  72;

MIDDLETON      CLOUDY    69  66  89 S8        29.93S
WATERTOWN      CLOUDY    66  66 100 SE3       29.94F FOG
MONROE         CLOUDY    66  63  88 S10       29.94S FOG
JANESVILLE     CLOUDY    70  66  88 S12       29.94F FOG
$$

WIZ051-052-058>065-066-070>072-061300-
SOUTHEAST WISCONSIN

CITY           SKY/WX    TMP DP  RH WIND       PRES   REMARKS
MILWAUKEE      PTSUNNY   68  62  81 S7        29.97F
6HR MIN TEMP:  62; 6HR MAX TEMP:  68;

WAUKESHA       SUNNY     63  61  94 S6        29.98F FOG
MILWAUKEE/TIMM SUNNY     66  61  82 S6        29.98S
RACINE         SUNNY     68  62  81 S7        30.00S HAZE
6HR MIN TEMP:  63; 6HR MAX TEMP:  68;

BURLINGTON     MOSUNNY   60  60  99 CALM      29.97F FOG
KENOSHA        MOSUNNY   67  63  87 S7        29.98F FOG
6HR MIN TEMP:  59; 6HR MAX TEMP:  67;

FOND DU LAC    CLOUDY    71  64  78 S9        29.93F
6HR MIN TEMP:  65; 6HR MAX TEMP:  71;

SHEBOYGAN      PTSUNNY   64  61  90 CALM      29.96S FOG
6HR MIN TEMP:  58; 6HR MAX TEMP:  64;

WEST BEND      PTSUNNY   63  61  94 CALM      29.96S FOG
JUNEAU         CLOUDY    65  63  91 SE7       29.95F FOG
$$

LSZ147-162-061300-
LAKE SUPERIOR

STATION/POSITION TIME  TEMP    WIND        PRES    WAVE
                       AIR SEA DIR/SP/G            HT/PER
                 (UTC) (F)     (DEG/KT/KT) (MB)    (FT/S)
W MID LAKE BUOY  1050   48 39  200/  8/ 10 1009.8R   1
DEVILS ISLAND    1100   63     230/  9/ 11 1010.4R
PORT WING        1100   64     350/  4/  4 1010.5R
SAXON HARBOR     1100   67        CALM     1010.2R
$$

LMZ867-665-643>646-061300-
LAKE MICHIGAN

STATION/POSITION TIME  TEMP    WIND        PRES    WAVE
                       AIR SEA DIR/SP/G            HT/PER
                 (UTC) (F)     (DEG/KT/KT) (MB)    (FT/S)
CHAMBERS ISLAND  1100   69     170/  5/ 10 1013.5R
N MID LAKE BUOY  1050   58 55  210/ 14/ 16 1014.0R   2/ 4
NORTHPORT PIER   1100   64     140/  7/  9 1013.9R
SISTER BAY       1129   66     170/ 11/ 12   N/A
ALGOMA LAKESHORE 1041          230/  9/ 11   N/A
KEWAUNEE LAKESHO 1100   64     180/  8/  8 1013.5R
SHEBOYGAN LAKESH 1100   63     170/  6/  6 1014.8R
PORT WASHINGTON  1100   63     170/  2/  4 1015.6R
ATWATER BUOY     1100   63 59  160/  6/  8 1016.4R
MILWAUKEE LAKESH 1100   65     190/  4/  5   N/A
KENOSHA   LAKESH 1100   66     200/  5/  9 1015.2R
$$

TC  - TEMPERATURE IN CELSIUS
VSB - VISIBILITY IN STATUTE MILES
WCI - WIND CHILL INDEX
HX  - HEAT INDEX



USA.gov is the U.S. government's official web portal to all federal, state and local government web resources and services.